TimeMDT,TemperatureF,Dew PointF,Humidity,Sea Level PressureIn,VisibilityMPH,Wind Direction,Wind SpeedMPH,Gust SpeedMPH,PrecipitationIn,Events,Conditions,WindDirDegrees,DateUTC
12:53 AM,48.9,26.1,41,29.99,10.0,SW,3.5,-,N/A,,Clear,230,2013-03-31 06:53:00
1:53 AM,46.0,26.1,46,29.99,10.0,West,4.6,-,N/A,,Clear,260,2013-03-31 07:53:00
2:53 AM,45.0,25.0,46,29.98,10.0,Variable,3.5,-,N/A,,Clear,0,2013-03-31 08:53:00
3:53 AM,44.1,24.1,45,29.98,10.0,WSW,5.8,-,N/A,,Clear,240,2013-03-31 09:53:00
4:53 AM,44.1,25.0,47,29.98,10.0,WSW,4.6,-,N/A,,Clear,250,2013-03-31 10:53:00
5:53 AM,41.0,25.0,53,30.00,10.0,West,3.5,-,N/A,,Clear,270,2013-03-31 11:53:00
6:53 AM,41.0,25.0,53,30.02,10.0,Calm,Calm,-,N/A,,Clear,0,2013-03-31 12:53:00
7:53 AM,39.9,21.9,49,30.05,10.0,Calm,Calm,-,N/A,,Clear,0,2013-03-31 13:53:00
8:53 AM,50.0,26.1,39,30.04,10.0,Calm,Calm,-,N/A,,Clear,0,2013-03-31 14:53:00
9:53 AM,57.0,26.1,30,30.03,10.0,ENE,3.5,-,N/A,,Clear,70,2013-03-31 15:53:00
10:53 AM,61.0,27.0,27,30.01,10.0,Variable,4.6,-,N/A,,Clear,0,2013-03-31 16:53:00
11:53 AM,63.0,26.1,25,30.01,10.0,Calm,Calm,-,N/A,,Clear,0,2013-03-31 17:53:00
12:53 PM,66.0,25.0,21,29.98,10.0,Calm,Calm,-,N/A,,Clear,0,2013-03-31 18:53:00
1:53 PM,69.1,24.1,18,29.95,10.0,WNW,8.1,-,N/A,,Clear,300,2013-03-31 19:53:00
2:53 PM,70.0,19.0,14,29.92,10.0,West,8.1,17.3,N/A,,Clear,270,2013-03-31 20:53:00
3:53 PM,71.1,12.9,11,29.89,10.0,WNW,8.1,-,N/A,,Clear,300,2013-03-31 21:53:00
4:53 PM,70.0,15.1,12,29.87,10.0,WNW,5.8,-,N/A,,Clear,300,2013-03-31 22:53:00
5:53 PM,70.0,16.0,13,29.86,10.0,SW,5.8,-,N/A,,Clear,230,2013-03-31 23:53:00
6:53 PM,68.0,16.0,14,29.85,10.0,NNW,8.1,-,N/A,,Clear,340,2013-04-01 00:53:00
7:53 PM,63.0,15.1,16,29.86,10.0,North,9.2,-,N/A,,Partly Cloudy,360,2013-04-01 01:53:00
8:53 PM,61.0,16.0,17,29.86,10.0,West,12.7,-,N/A,,Overcast,260,2013-04-01 02:53:00
9:53 PM,63.0,24.1,23,29.83,10.0,NW,6.9,-,N/A,,Partly Cloudy,320,2013-04-01 03:53:00
10:53 PM,60.1,30.9,33,29.86,10.0,West,29.9,35.7,N/A,,Mostly Cloudy,270,2013-04-01 04:53:00
11:53 PM,59.0,32.0,36,29.83,10.0,WNW,25.3,40.3,N/A,,Overcast,300,2013-04-01 05:53:00